Simultaneous Nadir Overpasses (SNOs) Predictions

Prediction of SNOs between METOP-B and TERRA Satellite Orbit:

Table of predicted SNOs for the next 14.0 days since TLE Epoch: 12/16/2017
Index Date (METOP-B) Time (METOP-B) Lat,Lon (METOP-B) SZA (METOP-B ) Date (TERRA) Time (TERRA) Lat,Lon (TERRA) SZA (TERRA ) Distance(km) Time Diff (sec)
1 12/18/2017 02:02:26 -81.31, 17.05 72.55 12/18/2017 02:02:43 -81.31, 16.91 72.56 2.46 17
2 12/18/2017 02:53:06 81.32,-175.34 107.49 12/18/2017 02:52:09 81.32,-175.35 107.46 0.34 57
3 12/20/2017 21:36:49 -81.31, 83.40 72.54 12/20/2017 21:37:00 -81.32, 83.53 72.52 2.48 11
4 12/20/2017 22:27:28 81.32,-108.64 107.53 12/20/2017 22:26:26 81.33,-108.73 107.50 1.64 62
5 12/23/2017 17:11:12 -81.31, 149.72 72.60 12/23/2017 17:11:20 -81.30, 149.60 72.62 2.31 8
6 12/23/2017 18:01:51 81.32, -42.37 107.47 12/23/2017 18:00:45 81.33, -42.29 107.45 1.58 66
7 12/26/2017 12:45:33 -81.32,-143.59 72.68 12/26/2017 12:45:39 -81.31,-143.76 72.70 2.92 6
8 12/26/2017 13:36:13 81.32, 23.89 107.34 12/26/2017 13:35:05 81.32, 23.97 107.31 1.31 68
9 12/29/2017 08:19:56 -81.31, -77.31 72.87 12/29/2017 08:20:01 -81.32, -77.30 72.87 0.40 5




NCC Satellite Simultaneous Nadir Overpasses (SNOs) Prediction Service
